Hourly Data Report for October 08, 2015

All times are specified in Local Standard Time (LST). Add 1 hour to adjust for Daylight Saving Time where and when it is observed.

FREDERICTON
NEW BRUNSWICK

45°52'08.000" N
66°32'14.000" W
20.70 m
8101505
71700
YFC

Download Data

Hourly Data (October 2015)
Hourly Data Report for October 8, 2015
Temp Definition
°C
Dew Point Temp Definition
°C
Rel Hum Definition
%
Wind Dir Definition
10's deg

Wind Spd Definition
km/h
Visibility Definition
km
Stn Press Definition
kPa
Hmdx Definition


Wind Chill Definition


Weather Definition


TIME
00:00 Legend Double Dagger 10.8 7.3 79 31 9 16.1 100.88     LegendNANA
01:00 Legend Double Dagger 10.0 5.8 75 29 9 16.1 100.96     LegendNANA
02:00 Legend Double Dagger 8.9 5.1 77 30 8 16.1 101.02     LegendNANA
03:00 Legend Double Dagger 7.8 3.5 74 27 8 16.1 101.06     LegendNANA
04:00 Legend Double Dagger 7.3 2.4 71 30 11 16.1 101.14     LegendNANA
05:00 Legend Double Dagger 5.0 2.2 82 24 5 16.1 101.21     LegendNANA
06:00 Legend Double Dagger 3.1 1.3 88 LegendMM 4 16.1 101.29     LegendNANA
07:00 Legend Double Dagger 3.3 1.7 89 26 9 16.1 101.36     LegendNANA
08:00 Legend Double Dagger 6.5 2.4 75 27 8 16.1 101.43     LegendNANA
09:00 Legend Double Dagger 8.4 1.6 62 29 15 16.1 101.45     LegendNANA
10:00 Legend Double Dagger 9.9 1.3 55 27 15 16.1 101.48     LegendNANA
11:00 Legend Double Dagger 11.1 0.4 48 27 13 16.1 101.47     LegendNANA
12:00 Legend Double Dagger 12.1 0.3 44 29 17 16.1 101.50     LegendNANA
13:00 Legend Double Dagger 12.5 -0.5 41 27 15 16.1 101.45     LegendNANA
14:00 Legend Double Dagger 12.3 -0.3 42 30 17 16.1 101.43     LegendNANA
15:00 Legend Double Dagger 13.3 -0.1 40 30 18 16.1 101.41     LegendNANA
16:00 Legend Double Dagger 12.6 -0.4 41 29 18 16.1 101.48     LegendNANA
17:00 Legend Double Dagger 11.5 0.4 46 29 11 16.1 101.50     LegendNANA
18:00 Legend Double Dagger 9.1 1.3 58 30 11 16.1 101.57     LegendNANA
19:00 Legend Double Dagger 6.0 1.5 73   0 16.1 101.62     LegendNANA
20:00 Legend Double Dagger 4.0 2.3 88   0 16.1 101.67     LegendNANA
21:00 Legend Double Dagger 2.6 1.3 91 LegendMM 4 16.1 101.72     LegendNANA
22:00 Legend Double Dagger 3.5 2.0 90 31 5 16.1 101.77     LegendNANA
23:00 Legend Double Dagger 2.8 1.5 91 LegendMM 4 16.1 101.79     LegendNANA

Notes on Data Quality.

Legend

  • E = Estimated
  • M = Missing
  • NA = Not Available
  • ‡ = Partner data that is not subject to review by the National Climate Archives
Date modified: